This is the latest recevied weather packets stored in our database for station/object DG8GAA-11. If no packets are shown the sender has not sent any weather packets the latest 10 day(s).
| Time | Temp. | Humidity | Pressure | Rain* | Wind** | Luminosity | Snow |
|---|---|---|---|---|---|---|---|
| 1777283585 | 25° C | 21% | 956.4 hPa | - | - | - | - |
| 1777283564 | 25° C | 22% | 956.3 hPa | - | - | - | - |
| 1777283543 | 25° C | 21% | 956.3 hPa | - | - | - | - |
| 1777282831 | 24.44° C | 22% | 956.4 hPa | - | - | - | - |
| 1777282803 | 24.44° C | 23% | 956.4 hPa | - | - | - | - |
| 1777282789 | 24.44° C | 22% | 956.4 hPa | - | - | - | - |
| 1777282769 | 24.44° C | 23% | 956.4 hPa | - | - | - | - |
| 1777282748 | 24.44° C | 22% | 956.5 hPa | - | - | - | - |
| 1777282721 | 24.44° C | 22% | 956.4 hPa | - | - | - | - |
| 1777282640 | 24.44° C | 22% | 956.4 hPa | - | - | - | - |
| 1777281827 | 23.89° C | 24% | 956.6 hPa | - | - | - | - |
| 1777281731 | 23.89° C | 24% | 956.7 hPa | - | - | - | - |
| 1777281274 | 22.78° C | 24% | 956.7 hPa | - | - | - | - |
| 1777281253 | 22.78° C | 24% | 956.8 hPa | - | - | - | - |
| 1777281226 | 22.78° C | 24% | 956.7 hPa | - | - | - | - |
| 1777280927 | 22.22° C | 25% | 956.8 hPa | - | - | - | - |
| 1777280734 | 22.22° C | 25% | 956.8 hPa | - | - | - | - |
| 1777280714 | 22.22° C | 25% | 956.9 hPa | - | - | - | - |
| 1777280687 | 22.22° C | 25% | 956.8 hPa | - | - | - | - |
| 1777280672 | 22.22° C | 26% | 956.8 hPa | - | - | - | - |
| 1777280229 | 20° C | 29% | 956.9 hPa | - | - | - | - |
| 1777280201 | 20° C | 30% | 956.9 hPa | - | - | - | - |
| 1777280187 | 19.44° C | 31% | 956.8 hPa | - | - | - | - |
| 1777280160 | 19.44° C | 34% | 956.9 hPa | - | - | - | - |
| 1777280139 | 19.44° C | 35% | 956.9 hPa | - | - | - | - |
* Rain since midnight (hover to see other rain measurements)
** Current wind speed in m/s (hover to see current wind gust speed)